Regional Weather Roundup
Issued by NWS

Home | Current Version | Previous Version | Text Only | Print | Product List | Glossary On
Versions: 1 2 3 4 5 6 7 8 9 10 11 12 13 14 15 16 17 18 19 20 21 22 23 24 25 26 27 28 29 30 31 32 33 34 35 36 37 38 39 40 41 42 43 44 45 46 47 48 49 50
350
ASUS43 KLMK 260510
RWRKY
KENTUCKY REGIONAL WEATHER ROUNDUP
NATIONAL WEATHER SERVICE LOUISVILLE KY
100 AM EDT TUE JUL 26 2016

NOTE "FAIR" INDICATES FEW OR NO CLOUDS BELOW 12,000 FEET
WITH NO SIGNIFICANT WEATHER AND/OR OBSTRUCTIONS TO VISIBILITY.

KYZ001>023-026-027-061>063-070>075-260600-
WESTERN AND SOUTH CENTRAL KENTUCKY

CITY           SKY/WX    TMP DP  RH WIND       PRES   REMARKS
PADUCAH        CLOUDY    77  74  90 SE3       29.99S
HENDERSON      CLOUDY    73  70  88 CALM      29.99S
OWENSBORO      CLOUDY    75  75 100 CALM      30.01S
HOPKINSVILLE   PTCLDY    74  73  93 CALM      30.01R
BOWLING GREEN  PTCLDY    76  73  91 CALM      30.02R
GLASGOW        CLOUDY    73  73 100 S3        30.03R
$$

KYZ024-025-028>034-038-045-046-053-260600-
NORTH CENTRAL KENTUCKY

CITY           SKY/WX    TMP DP  RH WIND       PRES   REMARKS
LOUISVILLE/SDF MOCLDY    78  73  84 SW5       30.01R
LOUISVILLE/LOU PTCLDY    77  73  87 CALM      30.02R
FORT KNOX      PTCLDY    74  74  99 SE2       30.02R
$$

KYZ035>037-039>044-047>052-055>060-089>105-260600-
NORTHEAST KENTUCKY

CITY           SKY/WX    TMP DP  RH WIND       PRES   REMARKS
LEXINGTON      CLOUDY    74  72  93 CALM      30.03R
COVINGTON      CLOUDY    77  75  93 SW3       30.01S
FRANKFORT      FOG       75  73  93 NW3       30.02R VSB 3/4
$$

KYZ054-064>069-076>088-106>120-260600-
SOUTHEAST KENTUCKY

CITY           SKY/WX    TMP DP  RH WIND       PRES   REMARKS
JACKSON        CLOUDY    74  72  93 CALM      30.06R
LONDON         PTCLDY    72  68  87 CALM      30.05S
SOMERSET       CLOUDY    72  72 100 CALM      30.05R
MIDDLESBORO    CLOUDY    74  71  89 W3        30.07S
MONTICELLO     CLEAR    N/A N/A N/A W5        30.05F
$$





USA.gov is the U.S. government's official web portal to all federal, state and local government web resources and services.